Tracking 30308 objects as of 19-Apr-2025
HD Live streaming from Space Station
objects crossing your sky now

IRIDIUM 33 DEB

Track IRIDIUM 33 DEB now!
10-day predictions


NORAD ID: 33864
Int'l Code: 1997-051AH
Perigee: 417.6 km
Apogee: 442.7 km
Inclination: 86.2 °
Period: 93.0 minutes
Semi major axis: 6801 km
RCS: 0.049 m2 (small)
Launch date: September 14, 1997
Source: United States (US)
Launch site: TYURATAM MISSILE AND SPACE COMPLEX (TTMTR)

Note: This is SATELLITE DEBRIS
Your satellite tracking list
Your tracking list is empty




NASA's NSSDC Master Catalog

Two Line Element Set (TLE):
1 33864U 97051AH  25109.18019577  .00452809  00000-0  82048-2 0  9993
2 33864  86.2249  28.1330 0018452 125.1375 235.1615 15.47840327855730
Source of the keplerian elements: AFSPC